This is the latest recevied weather packets stored in our database for station/object XE2RCS-21. If no packets are shown the sender has not sent any weather packets the latest 10 day(s).
| Time | Temp. | Humidity | Pressure | Rain* | Wind** | Luminosity | Snow |
|---|---|---|---|---|---|---|---|
| 1777741229 | 13.33° C | 100% | 992.9 hPa | - | - | - | - |
| 1777739429 | 12.78° C | 100% | 995.7 hPa | - | - | - | - |
| 1777737629 | 13.33° C | 100% | 1007.5 hPa | - | - | - | - |
| 1777735831 | 13.89° C | 100% | 1008.5 hPa | - | - | - | - |
| 1777734031 | 13.89° C | 100% | 1008.9 hPa | - | - | - | - |
| 1777732231 | 13.89° C | 100% | 997.5 hPa | - | - | - | - |
| 1777730430 | 13.33° C | 100% | 995.7 hPa | - | - | - | - |
| 1777728630 | 13.33° C | 100% | 993.6 hPa | - | - | - | - |
| 1777726830 | 13.33° C | 100% | 992.6 hPa | - | - | - | - |
| 1777725030 | 12.78° C | 100% | 990.8 hPa | - | - | - | - |
| 1777723230 | 13.33° C | 100% | 988.3 hPa | - | - | - | - |
| 1777721430 | 13.33° C | 100% | 986.9 hPa | - | - | - | - |
| 1777719629 | 13.33° C | 100% | 987.7 hPa | - | - | - | - |
| 1777717830 | 13.33° C | 100% | 987.2 hPa | - | - | - | - |
| 1777716028 | 13.89° C | 100% | 985.4 hPa | - | - | - | - |
| 1777714230 | 13.89° C | 100% | 988.1 hPa | - | - | - | - |
| 1777712430 | 13.89° C | 100% | 986.8 hPa | - | - | - | - |
| 1777710630 | 13.89° C | 100% | 986.4 hPa | - | - | - | - |
| 1777708830 | 13.89° C | 100% | 985.9 hPa | - | - | - | - |
| 1777707030 | 13.89° C | 100% | 985.2 hPa | - | - | - | - |
| 1777705230 | 13.89° C | 100% | 983 hPa | - | - | - | - |
| 1777703430 | 13.89° C | 100% | 981.4 hPa | - | - | - | - |
| 1777701629 | 15° C | 100% | 978.5 hPa | - | - | - | - |
| 1777699829 | 15° C | 100% | 975.8 hPa | - | - | - | - |
| 1777698029 | 15° C | 100% | 973 hPa | - | - | - | - |
* Rain since midnight (hover to see other rain measurements)
** Current wind speed in m/s (hover to see current wind gust speed)